Erzurum, Turkey

9:05 PM +03 on June 22, 2017 (GMT +0300)
Erzurum

Weather History for LTCE - February, 2014

Change the Weather History Date:

Thursday, February 13, 2014

  Actual Average Record
Temperature  
Mean Temperature 12 °F -  
Max Temperature 21 °F 32 °F 66 °F (2007)
Min Temperature 3 °F 17 °F -25 °F (2005)
Degree Days  
Heating Degree Days 53    
Moisture  
Dew Point 11 °F    
Average Humidity 95    
Maximum Humidity 100    
Minimum Humidity 92    
Precipitation  
Precipitation 0.00 in 0.04 in - ()
Sea Level Pressure  
Sea Level Pressure 30.20 in    
Wind  
Wind Speed 2 mph ()    
Max Wind Speed 7 mph    
Max Gust Speed -    
Visibility 0.7 miles    
Events Fog    
Averages and records for this station are not official NWS values.
T = Trace of Precipitation, MM = Missing Value Source: Averaged Metar Reports

Daily Weather History Graph

Daily Weather History Graph

Search for Another Location

Airport or City:

Trip Planner

Search our weather history database for the weather conditions in past years. The results will help you decide how hot, cold, wet, or windy it might be!

Date:

Astronomy

Feb. 13, 2014 Rise Set
Actual Time 6:11 AM EET 4:48 PM EET
Civil Twilight 5:43 AM EET 5:16 PM EET
Nautical Twilight 5:11 AM EET 5:48 PM EET
Astronomical Twilight 4:39 AM EET 6:19 PM EET
Moon 3:37 PM EET (2/13) 4:51 AM EET (2/13)
Length of Visible Light 11h 33m
Length of Day
10h 37m
Waxing Gibbous, 98% of the Moon is Illuminated
Feb 13
Waxing Gibbous
Feb 15
Full
Feb 22
Last Quarter
Mar 1
New
Mar 8
First Quarter

Hourly Weather History & Observations

Time (EET) Temp. Windchill Dew Point Humidity Pressure Visibility Wind Dir Wind Speed Gust Speed Precip Events Conditions
12:13 AM 17.6 °F - 17.6 °F 100% 30.24 in 0.3 mi Calm Calm - N/A Fog Patches of Fog
12:20 AM 17.6 °F - 17.6 °F 100% 30.24 in 0.2 mi Calm Calm - N/A Fog Patches of Fog
12:50 AM 17.6 °F - 17.6 °F 100% 30.24 in 0.4 mi Variable 2.3 mph - N/A Fog Patches of Fog
1:20 AM 17.6 °F - 17.6 °F 100% 30.24 in 0.4 mi Variable 2.3 mph - N/A Fog Patches of Fog
1:50 AM 17.6 °F - 15.8 °F 93% 30.21 in 0.4 mi Variable 2.3 mph - N/A Fog Patches of Fog
2:00 AM 17 °F - 17 °F 100%  in 0 mi SSE 2.3 mph - - Fog Patches of Fog
2:20 AM 17.6 °F 12.3 °F 15.8 °F 93% 30.21 in 0.6 mi ESE 3.5 mph - N/A Fog Patches of Fog
2:50 AM 15.8 °F - 15.8 °F 100% 30.21 in 0.4 mi Variable 2.3 mph - N/A Fog Patches of Fog
3:20 AM 15.8 °F - 15.8 °F 100% 30.21 in 0.3 mi Variable 2.3 mph - N/A Fog Patches of Fog
3:50 AM 15.8 °F - 15.8 °F 100% 30.21 in 0.4 mi Variable 1.2 mph - N/A Fog Patches of Fog
4:20 AM 15.8 °F - 15.8 °F 100% 30.21 in 0.6 mi Calm Calm - N/A Fog Patches of Fog
4:50 AM 15.8 °F - 15.8 °F 100% 30.21 in 0.4 mi Calm Calm - N/A Fog Patches of Fog
5:00 AM 16 °F - 16 °F 99%  in 0 mi Calm Calm - - Fog Patches of Fog
5:20 AM 14.0 °F - 12.2 °F 93% 30.21 in - Variable 2.3 mph - N/A Fog Patches of Fog
5:50 AM 14.0 °F - 12.2 °F 93% 30.21 in 0.4 mi Variable 2.3 mph - N/A Fog Patches of Fog
6:20 AM 12.2 °F 6.1 °F 10.4 °F 92% 30.21 in 0.4 mi SSW 3.5 mph - N/A Fog Patches of Fog
6:50 AM 12.2 °F - 12.2 °F 100% 30.21 in 0.2 mi Variable 1.2 mph - N/A Fog Light Freezing Fog
7:20 AM 14.0 °F - 12.2 °F 93% 30.21 in 0.2 mi Variable 2.3 mph - N/A Fog Light Freezing Fog
7:50 AM 14.0 °F - 12.2 °F 93% 30.21 in 0.2 mi Variable 2.3 mph - N/A Fog Light Freezing Fog
8:00 AM 14 °F - 14 °F 98%  in 0 mi SW 2.3 mph - - Fog Fog
8:20 AM 14.0 °F - 14.0 °F 100% 30.21 in 0.2 mi Variable 2.3 mph - N/A Fog Light Freezing Fog
8:50 AM 15.8 °F - 14.0 °F 93% 30.21 in 0.3 mi Calm Calm - N/A Fog Light Freezing Fog
9:20 AM 15.8 °F - 14.0 °F 93% 30.21 in 0.4 mi Variable 1.2 mph - N/A Fog Patches of Fog
9:50 AM 17.6 °F - 17.6 °F 100% 30.21 in 0.6 mi Variable 1.2 mph - N/A Fog Patches of Fog
10:20 AM 15.8 °F - 15.8 °F 100% 30.21 in 0.7 mi Variable 2.3 mph - N/A   Mostly Cloudy
10:50 AM 17.6 °F - 15.8 °F 93% 30.21 in 0.9 mi Variable 2.3 mph - N/A   Mostly Cloudy
11:00 AM 17 °F - 17 °F 100%  in 1 mi NNE 2.3 mph - - Fog Light Fog
11:20 AM 17.6 °F 10.7 °F 15.8 °F 93% 30.21 in 1.2 mi NNW 4.6 mph - N/A   Mostly Cloudy
11:50 AM 17.6 °F 12.3 °F 17.6 °F 100% 30.21 in 1.6 mi North 3.5 mph - N/A   Mostly Cloudy
12:20 PM 19.4 °F - 19.4 °F 100% 30.21 in 1.6 mi Variable 2.3 mph - N/A   Mostly Cloudy
12:50 PM 19.4 °F - 19.4 °F 100% 30.18 in 2.2 mi Variable 2.3 mph - N/A   Scattered Clouds
1:20 PM 19.4 °F 14.3 °F 19.4 °F 100% 30.18 in 2.2 mi East 3.5 mph - N/A   Scattered Clouds
1:50 PM 19.4 °F 11.5 °F 19.4 °F 100% 30.18 in 2.2 mi ESE 5.8 mph - N/A   Scattered Clouds
2:00 PM 19 °F - 19 °F 100%  in 2 mi ESE 5.8 mph - -   Mist
2:20 PM 19.4 °F 12.8 °F 19.4 °F 100% 30.18 in 2.2 mi NNE 4.6 mph - N/A   Scattered Clouds
2:50 PM 21.2 °F - 21.2 °F 100% 30.18 in 2.2 mi Variable 2.3 mph - N/A   Scattered Clouds
3:20 PM 21.2 °F - 19.4 °F 93% 30.18 in 2.2 mi Variable 2.3 mph - N/A   Scattered Clouds
3:50 PM 19.4 °F 14.3 °F 19.4 °F 100% 30.18 in 2.2 mi East 3.5 mph - N/A   Scattered Clouds
4:20 PM 19.4 °F - 19.4 °F 100% 30.18 in 2.2 mi Variable 2.3 mph - N/A   Scattered Clouds
4:50 PM 17.6 °F - 15.8 °F 93% 30.18 in 2.2 mi Variable 2.3 mph - N/A   Scattered Clouds
5:00 PM 17 °F - 17 °F 99%  in 2 mi East 2.3 mph - -   Mist
5:08 PM 15.8 °F - 14.0 °F 93% 30.18 in 0.6 mi ENE 2.3 mph - N/A Fog Light Freezing Fog
5:12 PM 14.0 °F 8.2 °F 14.0 °F 100% 30.18 in 0.2 mi NE 3.5 mph - N/A Fog Light Freezing Fog
5:20 PM 14.0 °F - 12.2 °F 93% 30.18 in 0.2 mi Variable 2.3 mph - N/A Fog Light Freezing Fog
5:39 PM 14.0 °F 6.5 °F 12.2 °F 93% 30.18 in 1.2 mi North 4.6 mph - N/A Fog Patches of Fog
5:50 PM 12.2 °F 1.7 °F 10.4 °F 92% 30.18 in 0.3 mi ESE 6.9 mph - N/A Fog Patches of Fog
6:07 PM 10.4 °F 0.8 °F 10.4 °F 100% 30.18 in - SE 5.8 mph - N/A   Mist
6:20 PM 14.0 °F 6.5 °F 12.2 °F 93% 30.18 in - SE 4.6 mph - N/A   Mist
6:50 PM 12.2 °F 4.3 °F 10.4 °F 92% 30.18 in 1.7 mi ENE 4.6 mph - N/A   Mist
7:11 PM 8.6 °F - 6.8 °F 92% 30.21 in 0.2 mi NNE 2.3 mph - N/A Fog Patches of Fog
7:20 PM 6.8 °F -0.1 °F 5.0 °F 92% 30.21 in 0.2 mi North 3.5 mph - N/A Fog Patches of Fog
7:50 PM 5.0 °F - 3.2 °F 92% 30.21 in 0.6 mi Variable 1.2 mph - N/A Fog Patches of Fog
7:59 PM 5.0 °F - 3.2 °F 92% 30.21 in 1.0 mi Calm Calm - N/A   Mist
8:00 PM 5 °F - 5 °F 100%  in 1 mi NE 1.2 mph - - Fog Patches of Fog
8:10 PM 3.2 °F - 1.4 °F 92% 30.21 in 1.2 mi Calm Calm - N/A Fog Patches of Fog
8:13 PM 3.2 °F - 1.4 °F 92% 30.21 in 0.6 mi Calm Calm - N/A Fog Patches of Fog
8:17 PM 3.2 °F - 1.4 °F 92% 30.21 in 0.2 mi Variable 1.2 mph - N/A Fog Patches of Fog
8:20 PM 3.2 °F - 1.4 °F 92% 30.21 in 0.2 mi Variable 1.2 mph - N/A Fog Patches of Fog
8:23 PM 3.2 °F - 1.4 °F 92% 30.21 in 0.4 mi Calm Calm - N/A Fog Patches of Fog
8:45 PM 5.0 °F - 3.2 °F 92% 30.21 in 0.6 mi Calm Calm - N/A Fog Patches of Fog
8:47 PM 5.0 °F - 3.2 °F 92% 30.21 in 0.7 mi Calm Calm - N/A   Mist
8:50 PM 3.2 °F - 1.4 °F 92% 30.21 in 0.7 mi Calm Calm - N/A   Mist
9:20 PM 3.2 °F - 1.4 °F 92% 30.21 in 0.7 mi Variable 1.2 mph - N/A   Mist
9:23 PM 3.2 °F - 1.4 °F 92% 30.21 in 0.6 mi Calm Calm - N/A Fog Patches of Fog
9:33 PM 3.2 °F - 1.4 °F 92% 30.21 in 0.4 mi WSW 1.2 mph - N/A Fog Patches of Fog
9:44 PM 3.2 °F - 1.4 °F 92% 30.21 in 0.2 mi WNW 1.2 mph - N/A Fog Patches of Fog
9:50 PM 3.2 °F - 1.4 °F 92% 30.21 in 0.2 mi Calm Calm - N/A Fog Light Freezing Fog
10:09 PM 3.2 °F - 1.4 °F 92% 30.18 in 0.2 mi Variable 2.3 mph - N/A Fog Patches of Fog
10:16 PM 3.2 °F - 1.4 °F 92% 30.21 in 0.2 mi Calm Calm - N/A Fog Light Freezing Fog
10:20 PM 3.2 °F - 1.4 °F 92% 30.21 in 0.2 mi Calm Calm - N/A Fog Light Freezing Fog
10:50 PM 3.2 °F - 1.4 °F 92% 30.21 in 0.2 mi Calm Calm - N/A Fog Light Freezing Fog
11:00 PM 4 °F - 4 °F 99%  in 0 mi Calm Calm - - Fog Fog
11:20 PM 3.2 °F - 1.4 °F 92% 30.21 in 0.2 mi Calm Calm - N/A Fog Light Freezing Fog
11:46 PM 3.2 °F - 1.4 °F 92% 30.21 in 0.3 mi Calm Calm - N/A Fog Light Freezing Fog
11:50 PM 3.2 °F - 1.4 °F 92% 30.21 in 0.3 mi Calm Calm - N/A Fog Light Freezing Fog
11:52 PM 3.2 °F - 1.4 °F 92% 30.21 in 0.4 mi Calm Calm - N/A Fog Light Freezing Fog
11:57 PM 3.2 °F - 1.4 °F 92% 30.21 in 0.6 mi Calm Calm - N/A Fog Patches of Fog